When you browse on this site, cookies collect data to enhance your experience and personalize the content and advertising you see.
Visit our Privacy Policy to learn more. By continuing to use the site, you agree to this use of cookies and data.
  • Em Portugal
  • Lista de países
  • Para 7 dias
  • Temperatura da água
  • Mapa do tempo
  • Widgets de tempo
  • user-avatar
    Iniciar Sessão

    Previsão horária em Chios

    Hoje, 11 Dezembro, Quarta-feira

    Tempo Temperatura Precipitação Vento Pressão Humidade
    00:00 +13°C° 0.5 mm 8 m/s 751 mmHg 71%
    01:00 +13°C° 0.5 mm 8 m/s 751 mmHg 74%
    02:00 +13°C° 0 mm 8 m/s 751 mmHg 75%
    03:00 +13°C° 2.7 mm 8 m/s 751 mmHg 79%
    04:00 +13°C° 2.7 mm 9 m/s 751 mmHg 83%
    05:00 +13°C° 2.7 mm 9 m/s 750 mmHg 87%
    06:00 +13°C° 2.1 mm 8 m/s 750 mmHg 87%
    07:00 +14°C° 2.1 mm 7 m/s 750 mmHg 86%
    08:00 +14°C° 2.1 mm 7 m/s 750 mmHg 86%
    09:00 +14°C° 1 mm 6 m/s 751 mmHg 83%
    10:00 +15°C° 1 mm 6 m/s 751 mmHg 81%
    11:00 +16°C° 1 mm 5 m/s 751 mmHg 78%
    12:00 +16°C° 0.2 mm 5 m/s 751 mmHg 77%
    13:00 +16°C° 0.2 mm 5 m/s 751 mmHg 75%
    14:00 +16°C° 0.2 mm 5 m/s 751 mmHg 73%
    15:00 +15°C° 0.1 mm 4 m/s 750 mmHg 76%
    16:00 +15°C° 0.1 mm 4 m/s 750 mmHg 78%
    17:00 +14°C° 0.1 mm 3 m/s 750 mmHg 81%
    18:00 +14°C° 0.3 mm 3 m/s 751 mmHg 82%
    19:00 +14°C° 0.3 mm 3 m/s 751 mmHg 83%
    20:00 +13°C° 0.3 mm 3 m/s 751 mmHg 85%
    21:00 +14°C° 0.4 mm 2 m/s 751 mmHg 84%
    22:00 +14°C° 0.4 mm 2 m/s 751 mmHg 83%
    23:00 +14°C° 0.4 mm 2 m/s 751 mmHg 82%

    Amanhã, 12 Dezembro, Quinta-feira

    Tempo Temperatura Precipitação Vento Pressão Humidade
    00:00 +14°C° 0.3 mm 2 m/s 750 mmHg 82%
    01:00 +14°C° 0.3 mm 2 m/s 750 mmHg 83%
    02:00 +14°C° 0.3 mm 2 m/s 750 mmHg 83%
    03:00 +13°C° 0.3 mm 2 m/s 749 mmHg 84%
    04:00 +12°C° 0.3 mm 3 m/s 749 mmHg 85%
    05:00 +12°C° 0.3 mm 3 m/s 748 mmHg 85%
    06:00 +12°C° 0.5 mm 3 m/s 749 mmHg 85%
    07:00 +12°C° 0.5 mm 3 m/s 749 mmHg 84%
    08:00 +13°C° 0.5 mm 3 m/s 749 mmHg 83%
    09:00 +13°C° 0.1 mm 3 m/s 749 mmHg 80%
    10:00 +14°C° 0.1 mm 3 m/s 749 mmHg 76%
    11:00 +16°C° 0.1 mm 2 m/s 749 mmHg 72%
    12:00 +16°C° 0.1 mm 2 m/s 748 mmHg 70%
    13:00 +17°C° 0.1 mm 2 m/s 748 mmHg 68%
    14:00 +17°C° 0.1 mm 2 m/s 748 mmHg 66%
    15:00 +16°C° 0.3 mm 2 m/s 748 mmHg 71%
    16:00 +14°C° 0.3 mm 3 m/s 748 mmHg 75%
    17:00 +14°C° 0.3 mm 3 m/s 748 mmHg 80%
    18:00 +13°C° 0 mm 3 m/s 749 mmHg 81%
    19:00 +13°C° 0 mm 3 m/s 749 mmHg 83%
    20:00 +14°C° 0 mm 2 m/s 749 mmHg 84%
    21:00 +13°C° 0 mm 2 m/s 749 mmHg 85%
    22:00 +13°C° 0 mm 1 m/s 749 mmHg 85%
    23:00 +13°C° 0 mm 1 m/s 749 mmHg 86%

    Depois de amanhã, 13 Dezembro, Sexta-feira

    Tempo Temperatura Precipitação Vento Pressão Humidade
    00:00 +13°C° 0.3 mm 1 m/s 749 mmHg 86%
    01:00 +13°C° 0.3 mm 2 m/s 749 mmHg 86%
    02:00 +13°C° 0.3 mm 2 m/s 749 mmHg 86%
    03:00 +13°C° 0.5 mm 2 m/s 749 mmHg 87%
    04:00 +13°C° 0.5 mm 2 m/s 749 mmHg 87%
    05:00 +12°C° 0.5 mm 2 m/s 749 mmHg 88%
    06:00 +12°C° 0.2 mm 2 m/s 749 mmHg 88%
    07:00 +12°C° 0.2 mm 2 m/s 749 mmHg 87%
    08:00 +12°C° 0.2 mm 2 m/s 749 mmHg 87%
    09:00 +13°C° 0.4 mm 3 m/s 749 mmHg 82%
    10:00 +14°C° 0.4 mm 4 m/s 749 mmHg 78%
    11:00 +15°C° 0.4 mm 5 m/s 749 mmHg 74%
    12:00 +15°C° 0.8 mm 6 m/s 749 mmHg 73%
    13:00 +15°C° 0.8 mm 6 m/s 748 mmHg 72%
    14:00 +15°C° 0.8 mm 7 m/s 748 mmHg 71%
    15:00 +15°C° 0.4 mm 7 m/s 748 mmHg 72%
    16:00 +15°C° 0.4 mm 7 m/s 747 mmHg 72%
    17:00 +14°C° 0.4 mm 7 m/s 747 mmHg 73%
    18:00 +14°C° 0.2 mm 7 m/s 747 mmHg 75%
    19:00 +14°C° 0.2 mm 6 m/s 747 mmHg 77%
    20:00 +13°C° 0.2 mm 6 m/s 747 mmHg 79%
    21:00 +13°C° 0.1 mm 6 m/s 747 mmHg 79%
    22:00 +13°C° 0.1 mm 6 m/s 747 mmHg 79%
    23:00 +13°C° 0.1 mm 5 m/s 747 mmHg 79%

    14 Dezembro, Sábado

    Tempo Temperatura Precipitação Vento Pressão Humidade
    00:00 +13°C° 0.7 mm 6 m/s 747 mmHg 80%
    01:00 +12°C° 0.7 mm 7 m/s 747 mmHg 80%
    02:00 +12°C° 0.7 mm 7 m/s 747 mmHg 81%
    03:00 +12°C° 0.4 mm 7 m/s 747 mmHg 80%
    04:00 +12°C° 0.4 mm 7 m/s 746 mmHg 79%
    05:00 +12°C° 0.4 mm 7 m/s 746 mmHg 77%
    06:00 +12°C° 0.1 mm 7 m/s 747 mmHg 79%
    07:00 +12°C° 0.1 mm 8 m/s 747 mmHg 80%
    08:00 +13°C° 0.1 mm 9 m/s 747 mmHg 81%
    09:00 +13°C° 0.5 mm 9 m/s 747 mmHg 79%
    10:00 +14°C° 0.5 mm 10 m/s 747 mmHg 78%
    11:00 +14°C° 0.5 mm 10 m/s 747 mmHg 76%
    12:00 +16°C° 0.3 mm 10 m/s 747 mmHg 75%
    13:00 +16°C° 0.3 mm 11 m/s 746 mmHg 74%
    14:00 +15°C° 0.3 mm 12 m/s 746 mmHg 73%
    15:00 +16°C° 0.7 mm 11 m/s 747 mmHg 76%
    16:00 +14°C° 0.7 mm 11 m/s 747 mmHg 78%
    17:00 +14°C° 0.7 mm 11 m/s 747 mmHg 81%
    18:00 +14°C° 0.5 mm 10 m/s 748 mmHg 80%
    19:00 +15°C° 0.5 mm 9 m/s 749 mmHg 80%
    20:00 +15°C° 0.5 mm 8 m/s 750 mmHg 79%
    21:00 +15°C° 0.2 mm 8 m/s 751 mmHg 79%
    22:00 +15°C° 0.2 mm 7 m/s 751 mmHg 80%
    23:00 +14°C° 0.2 mm 7 m/s 752 mmHg 80%

    15 Dezembro, Domingo

    Tempo Temperatura Precipitação Vento Pressão Humidade
    00:00 +14°C° 0.1 mm 7 m/s 753 mmHg 80%
    01:00 +14°C° 0.1 mm 6 m/s 753 mmHg 81%
    02:00 +14°C° 0.1 mm 6 m/s 754 mmHg 81%
    03:00 +13°C° 0 mm 5 m/s 754 mmHg 81%
    04:00 +13°C° 0 mm 4 m/s 755 mmHg 81%
    05:00 +13°C° 0 mm 3 m/s 755 mmHg 80%
    06:00 +13°C° 0 mm 3 m/s 756 mmHg 81%
    07:00 +14°C° 0 mm 2 m/s 757 mmHg 81%
    08:00 +14°C° 0 mm 2 m/s 758 mmHg 81%
    09:00 +15°C° 0 mm 2 m/s 758 mmHg 75%
    10:00 +17°C° 0 mm 2 m/s 759 mmHg 69%
    11:00 +18°C° 0 mm 2 m/s 759 mmHg 63%
    12:00 +18°C° 0 mm 2 m/s 759 mmHg 61%
    13:00 +19°C° 0 mm 3 m/s 760 mmHg 60%
    14:00 +19°C° 0 mm 3 m/s 760 mmHg 58%
    15:00 +18°C° 0 mm 3 m/s 760 mmHg 64%
    16:00 +17°C° 0 mm 3 m/s 760 mmHg 70%
    17:00 +16°C° 0 mm 3 m/s 761 mmHg 76%
    18:00 +16°C° 0 mm 3 m/s 761 mmHg 77%
    19:00 +14°C° 0 mm 3 m/s 761 mmHg 78%
    20:00 +15°C° 0 mm 2 m/s 762 mmHg 80%
    21:00 +15°C° 0 mm 2 m/s 762 mmHg 80%
    22:00 +15°C° 0 mm 2 m/s 762 mmHg 80%
    23:00 +15°C° 0 mm 2 m/s 762 mmHg 81%

    16 Dezembro, Segunda-feira

    Tempo Temperatura Precipitação Vento Pressão Humidade
    00:00 +14°C° 0 mm 2 m/s 762 mmHg 81%
    01:00 +14°C° 0 mm 2 m/s 762 mmHg 81%
    02:00 +14°C° 0 mm 2 m/s 762 mmHg 81%
    03:00 +14°C° 0 mm 2 m/s 762 mmHg 82%
    04:00 +14°C° 0 mm 1 m/s 762 mmHg 82%
    05:00 +13°C° 0 mm 1 m/s 762 mmHg 82%
    06:00 +13°C° 0 mm 1 m/s 763 mmHg 83%
    07:00 +13°C° 0 mm 1 m/s 763 mmHg 83%
    08:00 +13°C° 0 mm 1 m/s 763 mmHg 83%
    09:00 +15°C° 0 mm 1 m/s 763 mmHg 78%
    10:00 +16°C° 0 mm 2 m/s 764 mmHg 72%
    11:00 +18°C° 0 mm 2 m/s 764 mmHg 67%
    12:00 +18°C° 0 mm 2 m/s 763 mmHg 65%
    13:00 +18°C° 0 mm 2 m/s 763 mmHg 64%
    14:00 +19°C° 0 mm 2 m/s 763 mmHg 62%
    15:00 +18°C° 0 mm 2 m/s 763 mmHg 67%
    16:00 +17°C° 0 mm 2 m/s 763 mmHg 72%
    17:00 +16°C° 0 mm 3 m/s 762 mmHg 77%
    18:00 +14°C° 0 mm 3 m/s 763 mmHg 77%
    19:00 +14°C° 0 mm 3 m/s 763 mmHg 76%
    20:00 +14°C° 0 mm 3 m/s 763 mmHg 76%
    21:00 +13°C° 0 mm 3 m/s 763 mmHg 76%
    22:00 +13°C° 0 mm 3 m/s 763 mmHg 77%
    23:00 +13°C° 0 mm 3 m/s 763 mmHg 77%
    Mostrar mais